Powrót do katalogu

STARLINK-11204

AktywnyŁącznośćVLEO
NORAD 60931·PAYLOAD·🇺🇸 United States

Wystrzelony Aug 31, 2024 z Vandenberg Space Force Base

Loading…

Następne Przeloty (najbliższe 24 godziny)

TLE

ŚwieżeSource: CelesTrak SupGP

Epoka: Sep 15, 2026, 01:57 UTC

1 60931C 24155H   26258.08173611  .00047288  00000+0  38948-3 0  2587
2 60931  53.1567 127.4681 0001141  88.2585 163.0661 15.69688377    14

Śledź STARLINK-11204 w czasie rzeczywistym z AllMySat

Download on the App Store